Terminal Aerodrome Forecast
Issued by NWS Spokane, WA

Home | Current Version | Previous Version | Text Only | Print | Product List | Glossary On
Versions: 1 2 3 4 5 6 7 8 9 10 11 12 13 14 15 16 17 18 19 20 21 22 23 24 25 26 27 28 29 30 31 32 33 34
000
FTUS46 KOTX 271104 AAA
TAFGEG
TAF AMD
KGEG 271104Z 2711/2806 05005KT 4SM BR BCFG SCT001 SCT200
      TEMPO 2711/2713 1/2SM FG BKN001 BKN200
     FM271400 06005KT 1/2SM FG OVC001
     FM271630 08006KT 5SM BR SCT003 SCT200
     FM271700 12007KT P6SM SCT200
     FM271900 20009G16KT P6SM SCT200
     FM280200 20009KT P6SM FEW080 SCT120 BKN200=

USA.gov is the U.S. government's official web portal to all federal, state and local government web resources and services.